Home > Weather > North Bay > Past weeks

Flag for Canada Past Weather in North Bay, Ontario, Canada — Yesterday and Last 2 Weeks

Now
66 °F

Clear.


Feels Like: 66 °F
Forecast: 61 / 78 °F
Wind: 10 mph from Southwest

Location: North Bay

Current Time: Aug 25, 2016 at 11:31:57 PM

Latest Report: Aug 25, 2016 at 11:00 PM


Visibility: 9 mi

Pressure: 29.90 "Hg

Humidity: 94%

Dew Point: 64 °F

Location of North BayLocation

Past Weather in North Bay — Graph

°F

North Bay Temperature Yesterday

Maximum temperature yesterday: 75 °F (at 12:00 PM)
Minimum temperature yesterday: 63 °F (at 4:00 AM)
Average temperature yesterday: 68 °F

High & Low Weather Summary for the Past Weeks

 TemperatureHumidityPressure
High88 °F (Aug 11, 3:00 PM)100% (Aug 12, 5:00 AM)30.20 "Hg (Aug 12, 5:00 AM)
Low46 °F (Aug 22, 12:00 AM)43% (Aug 11, 4:00 PM)29.46 "Hg (Aug 21, 4:00 AM)
Average67 °F82%29.95 "Hg
* Reported Aug 10 10:00 PM — Aug 25 10:00 PM, North Bay, Weather by CustomWeather, © 2016

Note: Actual official high and low records may vary slightly from our data, if they occured in-between our weather recording intervals... More about our weather records

Advertising

North Bay Weather History for the Previous 24 Hours

Scroll right to see more
 ConditionsComfort  
Time TempWeatherWind HumidityBarometerVisibility
10:00 PM
Thu, Aug 25
68 °FPassing clouds.10 mph88%29.90 "Hg15 mi
9:00 PM68 °FScattered clouds.9 mph88%29.90 "Hg15 mi
8:00 PM70 °FScattered clouds.8 mph83%29.90 "Hg30 mi
7:00 PM73 °FScattered clouds.10 mph74%29.89 "Hg30 mi
6:00 PM75 °FBroken clouds.10 mph69%29.88 "Hg30 mi
5:00 PM75 °FBroken clouds.10 mph69%29.89 "Hg30 mi
4:00 PM75 °FPartly sunny.13 mph69%29.88 "Hg30 mi
3:00 PM75 °FPartly sunny.10 mph69%29.88 "Hg30 mi
2:00 PM77 °FPartly sunny.15 mph65%29.88 "Hg30 mi
1:00 PM75 °FBroken clouds.12 mph74%29.89 "Hg15 mi
12:00 PM72 °FBroken clouds.10 mph78%29.89 "Hg15 mi
11:00 AM72 °FBroken clouds.14 mph78%29.89 "Hg15 mi
10:00 AM70 °FPartly sunny.9 mph88%29.88 "Hg15 mi
9:00 AM70 °FMostly cloudy.8 mph94%29.87 "Hg10 mi
8:00 AM70 °FFog.10 mph94%29.87 "Hg6 mi
7:00 AM70 °FFog.10 mph94%29.86 "Hg4 mi
6:00 AM70 °FFog.13 mph94%29.85 "Hg5 mi
5:58 AM70 °FFog.12 mph94%29.85 "Hg5 mi
5:00 AM70 °FFog.7 mph94%29.83 "Hg6 mi
4:56 AM70 °FFog.12 mph94%29.83 "Hg6 mi
4:00 AM70 °FLow clouds.12 mph94%29.83 "Hg7 mi
3:45 AM68 °FLow clouds.9 mph100%29.83 "Hg7 mi
3:04 AM68 °FLight rain. Fog.7 mph94%29.83 "Hg3 mi
2:57 AM68 °FHeavy rain. Fog.6 mph94%29.84 "Hg2 mi
2:00 AM68 °FOvercast.9 mph94%29.84 "Hg9 mi
1:00 AM66 °FOvercast.9 mph94%29.86 "Hg9 mi
12:03 AM66 °FLight rain. Overcast.9 mph94%29.88 "Hg8 mi
11:53 PM
Wed, Aug 24
66 °FLight rain. Fog.12 mph94%29.89 "Hg6 mi
11:00 PM66 °FMostly cloudy.8 mph94%29.89 "Hg9 mi
Weather by CustomWeather, © 2016

See weather overviewHow to use our weather pages